Theta_e
306 306 306 306 307 307 308 309 306 307 309 310 310 308 307 307 303 298 300 305 313 317 315 316 314 316 318 316 317 321 318 320 320 322 321 320 320 320 320 322 322 322 320 320 318 317 316 317 315 316 316 315 314 314
305 305 305 306 306 307 307 308 308 307 308 310 310 309 308 307 306 299 304 306 308 318 314 312 311 312 315 318 317 318 319 318 319 317 318 318 317 317 319 321 321 321 319 319 318 314 316 318 314 316 315 313 314 313
305 305 305 305 306 306 306 307 307 308 308 309 309 310 309 308 305 303 300 301 310 318 316 315 315 316 315 316 316 316 318 323 323 321 319 318 318 318 319 319 318 320 320 321 319 320 319 318 315 315 316 314 313 312
306 306 306 306 307 306 307 307 307 308 308 309 309 310 309 309 306 304 304 308 310 317 316 317 316 317 316 315 316 315 318 320 320 318 317 319 319 318 319 320 320 318 320 319 319 319 318 318 315 314 315 314 313 313
306 307 307 307 307 307 308 308 307 307 308 308 309 310 310 308 305 309 300 301 307 315 318 316 316 316 314 316 316 315 318 320 318 317 320 321 319 319 318 318 319 316 320 321 319 319 319 318 316 316 315 314 313 313
307 307 308 308 309 309 310 309 308 307 307 308 310 311 311 309 310 306 317 314 315 319 320 318 316 318 317 317 317 318 320 321 318 318 320 319 319 321 321 320 318 318 317 318 318 317 319 319 317 315 315 313 314 310
307 309 308 309 310 310 310 311 309 307 307 308 310 312 312 310 306 313 316 314 311 313 318 319 320 319 319 318 319 318 318 317 318 318 322 321 319 320 320 321 319 318 318 317 318 318 317 317 315 314 314 314 313 312
309 311 309 309 310 311 311 311 309 307 308 309 311 313 313 310 306 312 313 314 313 314 317 321 322 322 320 321 321 320 320 321 321 321 319 322 320 321 321 320 319 320 319 319 318 317 317 315 314 313 314 313 312 311
310 311 312 310 310 311 311 311 308 309 309 310 313 314 312 316 319 314 312 310 309 316 321 322 322 324 318 320 320 320 320 321 318 321 320 321 322 321 318 316 320 320 321 318 317 316 315 314 314 313 313 313 313 311
310 310 311 311 311 311 311 311 308 310 310 310 314 315 324 316 312 313 315 319 319 320 319 320 321 323 321 321 322 321 321 323 322 321 321 321 318 309 310 313 312 316 320 320 317 317 316 315 314 314 314 310 312 314
310 310 310 310 311 311 311 309 310 311 309 310 312 316 312 309 316 320 323 324 324 324 322 322 322 321 319 321 321 320 321 321 323 321 322 323 310 308 309 310 310 313 313 313 314 315 314 313 314 314 314 314 313 312
310 310 310 309 310 310 311 311 311 310 308 309 308 307 309 319 327 324 323 321 320 321 321 321 319 320 321 320 320 319 320 320 322 321 321 312 309 308 309 310 310 310 312 311 312 313 314 315 314 315 315 315 314 312
309 310 309 309 310 310 310 311 311 310 309 310 310 315 323 322 320 321 320 321 322 320 318 319 318 318 322 320 320 318 318 319 320 320 311 309 309 309 310 310 310 310 310 310 310 311 312 313 315 314 313 314 313 312
308 309 309 309 310 311 311 311 310 309 310 315 320 312 317 321 322 321 320 320 320 320 319 318 319 320 320 320 320 320 320 319 315 312 313 310 309 308 309 310 310 310 310 310 310 310 312 313 313 313 313 313 314 314
305 308 308 309 310 310 310 309 309 311 313 318 319 315 318 319 321 319 319 319 320 318 318 318 319 319 321 320 317 311 313 314 312 312 310 309 308 308 309 309 309 309 308 308 308 309 310 313 312 312 312 312 312 315
305 306 310 310 309 309 307 309 312 315 317 316 316 316 318 321 321 319 318 319 319 318 318 318 319 319 318 315 314 310 312 312 311 309 308 308 307 307 307 307 308 307 306 306 306 308 309 311 312 312 311 311 311 315
305 307 308 308 308 306 309 311 315 317 318 319 320 320 320 320 320 320 319 320 318 319 318 320 318 316 315 315 313 313 313 310 310 310 308 306 305 305 306 305 305 304 306 305 306 308 310 311 312 312 312 312 312 314
304 305 305 304 304 308 311 314 317 317 317 318 319 321 319 319 319 319 321 319 320 319 320 319 316 314 314 314 312 312 312 311 309 305 304 305 304 304 305 304 304 305 306 305 308 311 311 311 312 311 311 311 314 314
303 303 303 305 306 306 311 316 317 318 318 319 318 319 317 319 320 319 320 319 318 318 317 316 314 315 314 313 313 312 309 306 304 303 304 303 303 303 304 304 304 304 305 305 306 309 310 310 311 311 312 312 313 313
303 304 308 310 309 310 315 317 316 319 319 320 319 319 320 319 320 320 320 318 318 318 315 315 315 315 315 314 311 308 305 303 302 303 303 303 302 302 303 303 302 302 302 304 305 309 309 310 310 310 311 311 311 309
305 309 309 310 310 310 314 317 319 320 320 320 319 319 320 320 320 321 321 318 317 316 315 314 313 314 312 309 306 305 303 302 303 303 303 302 302 302 303 303 302 301 301 302 304 307 307 309 311 310 306 306 308 307
304 306 309 311 312 313 315 315 317 318 319 320 319 319 321 319 321 321 319 318 316 316 314 314 313 313 311 308 306 304 303 302 303 302 301 301 302 302 301 302 300 300 300 301 302 303 303 306 308 308 306 303 300 298
306 308 309 311 313 312 311 313 317 318 320 320 319 319 319 320 321 319 321 318 316 315 314 313 313 310 308 305 305 304 303 302 302 302 301 301 300 300 300 299 298 298 299 299 298 298 298 299 299 299 298 298 296 296
309 309 311 312 313 312 314 318 318 319 318 318 318 319 318 319 320 321 320 318 315 314 314 313 311 308 306 306 306 304 302 302 302 301 300 300 300 299 299 298 297 297 298 297 296 296 295 296 296 296 295 295 294 294
309 310 310 309 313 314 316 318 319 320 319 319 319 319 320 320 319 319 319 317 315 314 313 311 309 306 306 305 305 303 302 302 301 301 300 299 298 298 297 297 297 297 298 298 297 296 296 296 295 295 295 295 295 294
310 311 308 313 315 316 317 318 318 318 318 317 317 319 319 319 318 319 319 317 316 316 315 312 309 306 306 304 305 304 302 301 301 301 300 299 298 298 296 296 296 297 296 297 297 297 297 297 297 297 297 296 296 296
310 312 313 313 314 316 317 316 316 317 317 317 319 318 318 318 319 321 318 316 317 314 312 308 304 305 304 304 304 303 302 301 301 300 300 298 298 298 297 297 296 296 296 297 297 297 296 296 295 295 295 294 294 295
310 311 313 313 315 316 315 315 315 315 316 317 317 318 318 318 321 321 319 316 314 313 311 306 305 303 302 304 303 303 302 301 301 301 300 298 298 298 298 298 295 295 296 297 297 295 295 295 295 295 295 294 294 293
309 310 310 311 311 312 313 313 314 314 315 316 318 319 318 319 321 320 316 315 314 313 312 309 305 303 302 301 301 301 300 298 299 301 300 300 300 299 299 299 297 296 296 295 295 295 295 295 294 295 295 294 293 293
309 309 310 310 311 312 313 313 314 315 315 316 317 317 318 318 317 317 316 316 314 313 313 309 305 303 303 302 301 301 299 298 299 300 300 301 298 297 297 298 297 297 297 297 295 295 295 294 293 293 292 292 292 291
309 311 311 311 311 312 313 312 312 314 314 316 317 318 318 318 317 317 317 316 315 314 310 307 304 303 302 301 302 300 300 299 299 299 298 297 297 296 296 296 296 296 295 295 295 294 294 293 293 292 292 291 290 290
311 311 312 312 314 314 313 314 315 316 316 317 317 317 319 319 320 320 317 316 315 314 312 310 305 303 302 301 299 299 299 298 298 298 297 297 296 296 296 295 295 295 294 294 294 294 293 293 293 292 292 291 290 289
311 312 313 314 314 313 314 315 316 316 316 317 317 317 318 319 319 318 316 315 315 314 311 309 306 302 301 298 297 296 295 295 294 294 295 294 294 295 295 295 294 294 294 293 293 293 292 292 291 291 290 290 289 289
Wind_Speed
28 30 31 33 35 36 38 40 35 36 44 45 46 43 37 26 20 18 15 8 7 3 11 5 9 10 4 1 1 2 4 2 1 2 3 5 2 1 2 3 1 3 1 2 4 3 2 8 5 7 5 4 5 4
28 30 31 33 35 37 38 40 39 37 43 47 49 46 36 27 18 14 8 12 14 7 7 30 29 27 20 6 3 0 2 4 2 1 3 3 4 3 2 3 4 2 6 4 6 6 5 4 6 6 7 4 4 2
28 30 32 33 35 37 39 41 42 39 43 48 50 47 33 28 20 13 12 15 7 3 8 9 9 25 26 18 11 4 2 3 3 2 0 2 2 1 2 4 5 4 5 3 4 4 2 3 5 6 6 9 8 7
28 30 32 34 35 37 40 42 43 40 45 49 51 46 31 28 22 15 7 8 7 6 3 5 20 14 13 16 13 11 6 4 2 1 2 2 2 2 3 4 3 5 3 6 5 6 8 6 7 11 8 9 7 7
29 30 32 33 36 37 40 43 45 42 47 52 52 42 31 29 16 14 13 14 11 4 3 7 25 27 20 17 18 16 13 5 2 2 2 3 3 3 6 6 8 4 8 7 5 7 6 6 9 10 8 9 9 8
29 31 32 33 36 38 41 44 47 44 50 52 49 38 30 24 16 4 2 4 5 8 2 4 8 8 17 20 14 8 7 4 4 4 3 3 2 8 4 5 5 10 9 7 8 8 6 2 9 10 13 11 8 9
29 31 33 34 36 38 41 45 48 43 54 53 45 35 30 17 7 4 1 4 10 8 2 4 5 4 8 10 4 3 9 3 4 4 4 4 4 6 5 10 8 11 15 12 8 5 4 7 7 13 7 9 16 11
29 31 33 35 36 38 41 45 46 44 55 51 40 33 24 6 5 4 3 3 8 4 3 3 4 2 8 3 5 3 3 1 1 4 4 5 3 2 3 9 10 10 9 9 8 5 6 6 8 3 6 9 8 8
29 31 33 35 37 38 41 45 40 48 55 43 29 23 1 1 2 1 13 16 7 3 3 3 5 4 5 2 2 2 3 2 3 4 6 4 5 1 14 23 20 8 3 3 1 6 12 7 9 9 8 7 5 9
30 33 35 36 37 39 41 44 35 49 47 34 17 6 2 4 17 12 1 3 3 2 2 2 2 3 2 2 2 1 2 3 3 4 1 1 4 18 22 19 23 26 9 4 2 7 12 6 5 8 5 10 8 6
31 33 36 37 37 39 42 32 39 46 26 17 10 3 16 22 4 3 3 3 3 3 1 2 5 4 3 2 3 1 3 3 2 3 2 4 5 14 21 18 19 21 18 19 19 17 14 6 4 5 8 8 13 16
32 34 35 37 38 38 33 31 38 32 22 16 18 21 9 4 3 3 3 2 3 2 2 3 6 4 1 3 2 2 2 1 5 4 1 3 4 12 18 22 19 20 19 20 19 18 20 23 13 4 6 6 12 17
32 33 34 36 37 33 30 36 40 43 36 4 2 4 2 3 5 4 4 3 3 4 4 7 10 7 3 2 2 0 2 5 5 2 2 2 6 11 14 12 17 21 22 23 23 26 24 25 26 13 15 16 23 20
32 33 35 37 32 27 37 41 44 37 6 3 4 6 2 3 3 4 2 2 2 4 6 8 6 5 2 2 2 3 2 5 4 2 3 4 11 15 15 12 13 16 15 15 16 21 20 22 20 20 15 15 12 17
30 33 35 25 18 38 42 42 40 9 4 4 3 3 4 4 3 4 1 2 3 4 6 6 4 3 4 5 5 3 6 4 3 3 5 8 14 15 15 12 13 13 14 15 19 16 19 17 17 22 20 21 25 18
26 30 6 16 35 40 42 42 16 5 4 3 4 3 5 5 4 4 4 3 4 4 3 3 4 4 6 2 4 4 5 3 4 5 9 12 13 13 11 12 13 18 18 19 21 23 21 19 15 16 22 22 25 10
22 8 18 30 37 41 35 7 4 5 4 4 4 5 1 3 3 3 3 6 8 3 2 2 4 3 1 3 2 2 1 6 9 9 7 7 12 12 13 19 21 24 21 23 25 26 21 18 10 5 7 22 24 13
18 21 25 30 32 31 9 5 5 4 5 5 5 2 4 2 3 3 4 5 3 2 1 3 1 1 2 3 3 3 6 5 5 7 8 10 19 20 20 19 24 28 21 24 21 17 14 10 6 7 15 17 18 12
27 29 30 23 21 8 5 4 4 3 4 5 5 3 2 2 2 8 4 7 5 3 2 2 2 1 2 1 3 5 5 6 7 8 7 19 21 23 23 26 18 25 22 24 21 11 13 13 15 18 18 22 14 5
24 24 13 11 10 4 4 4 5 3 4 2 3 4 1 2 3 3 4 3 3 2 3 2 2 2 2 2 3 4 5 7 5 6 7 9 18 22 21 20 22 23 22 27 22 17 11 12 12 16 23 20 16 15
18 4 13 8 4 9 6 4 4 4 4 2 4 4 3 2 3 3 2 2 2 2 2 2 2 4 6 8 11 10 10 6 5 4 5 8 19 20 21 21 24 23 20 20 18 18 21 15 14 15 20 17 18 24
8 11 7 7 4 5 5 7 4 7 3 4 6 5 3 1 3 2 3 1 2 2 1 1 3 4 1 5 11 12 7 7 11 9 14 16 8 13 17 20 21 18 21 23 23 20 24 26 22 21 22 25 29 32
16 4 5 4 3 3 6 7 4 4 4 2 3 3 1 2 3 3 2 2 3 3 3 5 10 3 11 10 15 13 10 9 7 8 12 14 15 17 18 20 21 20 18 22 23 23 23 26 27 24 25 27 24 27
6 3 3 3 5 4 5 5 5 3 2 4 2 3 3 2 3 2 2 3 3 7 4 4 8 3 7 8 9 10 9 9 8 8 11 11 13 16 19 19 21 24 23 21 23 24 25 25 26 27 26 26 26 25
3 4 3 5 4 4 6 9 11 5 5 6 5 2 2 2 1 2 1 3 4 2 2 2 4 6 1 5 11 11 7 6 6 5 9 11 11 12 14 18 20 23 21 19 20 21 21 24 25 26 26 26 26 25
4 5 6 5 4 5 3 4 5 5 5 3 0 1 2 0 2 3 2 3 2 3 3 1 2 2 4 11 6 6 8 6 4 7 7 8 9 10 11 12 14 18 20 18 15 17 19 21 21 20 21 22 22 20
4 6 6 7 5 5 3 3 8 3 3 1 2 2 1 3 3 2 2 2 2 11 7 7 4 5 6 14 12 10 6 4 5 7 5 6 7 8 9 8 11 12 15 17 18 19 18 18 19 19 20 20 20 18
6 5 10 8 4 2 4 3 3 4 4 3 3 3 2 2 2 2 2 6 13 8 11 11 6 5 7 14 12 14 10 7 10 9 7 7 6 5 4 5 9 12 11 11 11 14 14 12 12 12 13 14 13 13
5 6 9 15 12 8 7 7 8 7 7 2 3 4 1 2 3 4 9 13 12 12 11 13 13 12 12 10 8 12 10 8 9 7 4 1 4 9 9 9 8 6 5 8 11 11 11 11 14 9 15 18 22 23
8 8 12 16 17 13 9 7 8 7 4 4 2 5 4 3 9 10 12 15 16 13 10 12 12 6 7 14 14 14 12 8 5 5 1 3 8 8 8 8 5 6 4 8 10 12 7 13 17 19 21 20 19 19
5 5 8 10 13 11 11 13 15 13 8 8 5 5 4 3 5 10 10 9 11 14 16 13 11 10 6 4 12 13 12 11 7 4 3 2 8 7 7 8 9 9 10 10 11 12 13 14 15 15 16 16 17 16
6 9 9 6 8 10 8 8 11 8 5 5 6 5 2 3 5 4 13 12 11 9 16 15 15 14 12 10 7 9 16 14 10 5 4 7 6 4 6 8 8 8 9 10 11 11 12 12 12 13 14 14 13 13
10 10 12 10 10 11 8 6 5 8 8 8 8 6 6 6 5 3 11 14 11 10 15 13 12 20 18 15 14 13 12 10 8 8 9 8 7 9 11 9 7 7 8 9 10 10 11 11 12 12 12 12 12 12
Wind_Direction
358 358 358 358 358 358 358 358 357 358 360 357 355 354 351 346 340 340 302 301 268 252 290 277 327 321 329 260 229 337 352 7 279 214 232 272 215 50 195 262 197 200 249 263 333 360 283 164 232 185 195 163 176 253
352 353 353 354 353 353 353 353 352 348 353 354 352 351 348 343 332 330 288 301 314 246 271 297 286 283 277 294 140 59 241 183 197 30 6 16 328 320 308 281 129 268 183 203 179 215 225 194 155 153 155 187 204 207
348 348 349 350 349 349 348 348 348 347 348 351 349 349 346 340 329 308 282 296 325 270 284 260 254 286 237 240 234 139 335 8 52 128 171 256 266 14 283 283 303 246 156 166 1 305 300 263 197 177 174 195 200 213
344 345 345 346 346 346 346 345 345 345 346 347 346 347 344 337 325 310 252 262 299 278 279 288 333 352 207 212 184 179 169 132 139 170 227 230 268 205 239 238 305 261 212 216 237 242 262 200 197 193 241 181 174 217
339 341 342 343 344 344 344 344 344 341 342 344 344 345 344 340 327 314 277 274 243 275 301 300 304 291 273 212 191 187 180 154 178 283 242 218 239 277 274 283 266 237 265 235 233 248 216 218 207 216 203 194 194 191
334 336 338 340 341 341 342 343 342 340 341 341 340 342 342 340 328 330 274 48 328 309 315 309 320 277 291 194 185 201 184 178 177 178 203 228 267 293 241 249 246 296 288 195 233 233 186 178 31 245 217 212 194 184
330 332 334 338 339 340 340 341 341 338 340 340 336 338 337 333 318 267 355 295 345 349 281 293 302 331 214 165 204 195 207 227 200 226 217 207 230 240 263 273 290 253 260 262 232 182 201 177 186 226 206 193 197 206
327 331 332 334 336 338 339 340 339 339 340 339 335 334 325 303 288 280 271 297 334 283 266 271 272 306 15 321 338 350 71 120 34 245 263 241 274 259 276 265 259 260 260 257 253 185 192 176 171 165 220 189 182 193
325 328 330 332 334 337 338 339 338 341 341 338 336 330 318 232 267 2 302 299 272 280 323 314 354 359 331 276 153 322 5 16 286 233 245 226 247 93 356 353 316 275 295 279 336 4 313 227 190 190 207 209 175 59
322 324 327 329 331 334 336 337 337 342 344 345 346 324 156 3 308 307 16 155 171 186 220 261 32 321 302 288 283 112 229 246 283 254 243 24 105 359 356 341 5 348 297 238 239 211 259 274 237 194 178 138 160 136
321 322 324 326 328 332 335 339 341 345 350 354 347 306 306 321 318 221 248 188 187 144 298 295 223 251 224 237 270 321 330 343 270 288 50 28 12 345 336 343 355 348 344 11 12 4 331 231 235 197 150 184 165 170
315 317 321 323 326 330 332 337 338 345 330 295 283 299 288 273 239 290 350 48 82 19 229 218 296 258 156 94 35 10 254 236 250 328 306 55 308 317 328 345 348 348 345 348 350 359 354 350 354 313 204 203 189 178
314 315 318 320 326 327 331 331 333 336 330 279 212 242 219 260 22 360 345 21 354 308 319 339 327 305 126 118 125 17 258 245 321 25 49 195 303 321 319 329 329 328 336 349 346 342 339 338 324 6 359 324 167 175
311 312 314 317 321 325 328 328 329 331 304 259 250 310 201 238 225 71 41 10 306 308 343 339 318 304 337 112 70 267 289 14 36 359 21 323 324 314 319 318 319 324 334 327 324 325 317 310 315 315 345 350 181 177
310 311 315 321 324 325 319 319 324 303 254 263 248 256 246 322 37 71 21 348 1 344 330 328 305 13 23 32 26 17 344 34 20 326 302 303 310 311 314 322 324 323 332 324 318 306 304 286 301 309 311 330 332 245
317 316 318 304 317 315 319 322 324 206 233 238 235 279 279 309 19 30 16 341 12 4 344 342 10 25 51 28 21 24 352 335 323 293 302 316 322 341 347 333 329 326 326 321 313 300 298 282 265 272 290 303 314 254
310 275 305 314 316 319 323 299 251 225 246 247 238 239 259 28 5 346 12 37 35 45 29 334 26 16 219 310 49 84 338 289 301 313 323 3 349 341 344 340 335 327 324 320 310 300 294 275 258 314 305 288 297 280
291 299 301 313 326 333 302 238 255 255 256 246 272 357 63 14 353 324 80 47 46 49 2 66 32 43 14 4 320 318 298 301 10 354 348 0 352 346 345 339 331 331 320 317 323 346 21 22 17 326 316 310 296 275
304 308 312 318 323 311 286 267 243 271 272 330 322 12 350 286 18 92 101 97 77 89 77 42 65 1 25 5 272 294 18 21 1 352 352 351 351 344 339 345 342 344 344 332 323 339 2 2 13 342 321 337 295 330
309 310 323 321 298 258 264 248 217 266 281 308 324 276 269 276 128 118 85 63 19 102 75 49 45 352 263 288 34 46 52 30 355 343 352 344 347 339 341 344 351 348 346 340 358 16 2 6 356 356 356 1 20 38
329 307 325 316 215 223 284 293 259 269 297 300 307 288 271 244 114 137 104 34 79 31 55 97 153 252 265 100 87 69 62 16 17 37 343 338 337 339 342 349 358 359 356 351 349 358 7 7 15 35 61 45 59 62
263 327 304 263 251 237 237 240 258 316 283 257 286 255 250 219 116 117 154 92 70 80 78 324 271 279 69 93 94 85 65 18 45 43 3 344 343 349 351 10 4 359 1 5 6 11 14 24 45 51 58 56 57 62
285 274 223 256 267 276 263 279 246 221 243 270 332 267 220 85 99 128 95 92 95 110 166 244 268 301 104 92 113 82 69 54 44 37 7 353 356 6 16 11 8 6 1 10 12 17 22 31 41 49 53 56 55 55
260 260 256 244 209 260 269 227 225 244 250 252 264 330 310 116 129 156 188 150 120 166 191 263 296 102 105 86 84 70 54 69 59 49 15 7 9 16 22 16 16 15 21 29 33 37 40 43 51 56 60 64 64 66
265 243 201 257 255 241 262 251 228 235 251 266 255 278 112 128 127 234 161 152 164 190 187 75 320 91 115 95 98 92 74 66 63 56 30 40 29 21 33 29 28 22 20 31 44 49 54 57 61 65 69 72 76 77
246 233 198 229 223 221 272 327 10 9 342 1 246 108 63 24 227 228 161 125 149 144 98 85 56 73 79 93 88 90 91 87 98 79 52 59 46 40 38 29 29 28 38 55 54 54 57 58 61 66 69 74 78 82
238 250 224 228 272 296 291 301 313 317 340 297 340 10 145 224 226 85 88 68 108 124 130 91 64 72 93 119 114 116 122 148 140 124 114 97 73 80 63 38 37 48 56 56 53 67 64 69 72 73 73 72 77 81
235 272 267 286 279 306 305 309 306 281 270 258 200 181 242 203 107 142 133 158 109 124 141 140 162 112 90 134 148 157 157 173 181 162 187 148 112 122 114 102 76 83 74 59 74 76 77 83 86 91 95 97 94 78
234 241 266 276 286 289 262 252 257 258 282 87 307 276 228 43 110 127 150 155 162 164 189 182 163 155 157 148 122 115 105 102 91 118 138 290 266 177 170 169 157 153 104 81 75 69 59 44 31 45 79 75 65 63
232 229 251 253 257 258 265 260 263 270 324 293 301 297 252 166 170 189 189 181 177 193 210 131 146 175 186 160 140 124 124 136 159 161 117 68 77 64 63 97 72 89 77 85 95 68 68 64 60 58 58 60 62 59
259 247 248 245 256 261 259 263 276 270 260 263 232 256 254 187 168 185 188 201 205 205 150 147 154 156 162 188 145 152 142 147 154 179 274 3 99 84 73 71 77 75 81 81 74 73 75 73 70 69 69 66 64 66
216 222 228 236 254 243 226 238 249 264 258 262 263 247 149 176 202 190 196 193 211 202 178 170 162 151 154 146 110 96 135 139 143 157 122 86 100 63 93 98 95 94 85 76 72 73 75 76 81 81 77 76 79 82
237 246 250 237 246 277 270 237 249 249 250 244 244 239 248 218 206 165 173 193 206 215 169 164 147 147 150 147 143 138 147 155 159 156 148 130 107 97 102 99 93 86 82 85 92 91 87 85 83 82 81 81 80 78